DG1GMY-13 Weather Reports


time (UTC)temp
F
wind
direction
speed
knots
gust
knots
rain 1hr
in
rain 24hr
in
rain mn
in
humidity
%
barometer
mb
20260506192641 50 0.0 0.0 0.00 0.00 0.00 100 1010.4
20260506185635 50 0.0 0.0 0.00 0.00 0.00 100 1010.2
20260506182629 51 0.0 0.0 0.00 0.00 0.00 100 1009.7
20260506175623 53 0.0 0.0 0.00 0.00 0.00 100 1009.3
20260506172617 55 0.0 0.0 0.00 0.00 0.00 100 1008.7
20260506165611 55 0.0 0.0 0.00 0.00 0.00 100 1008.6
20260506162605 54 0.0 0.0 0.00 0.00 0.00 100 1008.6
20260506155559 53 0.0 0.0 0.00 0.00 0.00 100 1008.9
20260506152553 53 0.0 0.0 0.00 0.00 0.00 100 1008.9
20260506145547 55 0.0 0.0 0.00 0.00 0.00 100 1008.9
20260506142541 56 0.0 0.0 0.00 0.00 0.00 100 1008.6
20260506135535 57 0.0 0.0 0.00 0.00 0.00 100 1008.3
20260506132529 60 0.0 0.0 0.00 0.00 0.00 79 1007.7
20260506125523 62 0.0 0.0 0.00 0.00 0.00 68 1007.4
20260506122517 67 0.0 0.0 0.00 0.00 0.00 63 1007.1
20260506115511 64 0.0 0.0 0.00 0.00 0.00 64 1007.2
20260506112505 64 0.0 0.0 0.00 0.00 0.00 67 1007.2
20260506105500 65 0.0 0.0 0.00 0.00 0.00 67 1007.4
20260506102456 63 0.0 0.0 0.00 0.00 0.00 73 1007.8
20260506095448 62 0.0 0.0 0.00 0.00 0.00 77 1007.7
20260506092442 60 0.0 0.0 0.00 0.00 0.00 83 1007.8
20260506085436 61 0.0 0.0 0.00 0.00 0.00 78 1007.8
20260506082430 61 0.0 0.0 0.00 0.00 0.00 82 1007.7
20260506072418 59 0.0 0.0 0.00 0.00 0.00 86 1007.4
20260506062406 57 0.0 0.0 0.00 0.00 0.00 96 1007.6
20260506042342 52 0.0 0.0 0.00 0.00 0.00 100 1007.9
20260506035336 52 0.0 0.0 0.00 0.00 0.00 100 1007.7
20260506032330 53 0.0 0.0 0.00 0.00 0.00 100 1007.9
20260506025324 54 0.0 0.0 0.00 0.00 0.00 100 1008.1
20260506022318 54 0.0 0.0 0.00 0.00 0.00 100 1008.5
20260506015312 54 0.0 0.0 0.00 0.00 0.00 100 1008.5
20260506012308 55 0.0 0.0 0.00 0.00 0.00 100 1008.3
20260506005300 55 0.0 0.0 0.00 0.00 0.00 100 1008.5
20260506002254 55 0.0 0.0 0.00 0.00 0.00 100 1008.9
20260505235249 55 0.0 0.0 0.00 0.00 0.00 100 1009.0
20260505232243 55 0.0 0.0 0.00 0.00 0.00 100 1009.2
20260505225237 55 0.0 0.0 0.00 0.00 0.00 100 1009.4
20260505222231 55 0.0 0.0 0.00 0.00 0.00 100 1009.5
20260505215225 55 0.0 0.0 0.00 0.00 0.00 100 1009.3
20260505212219 55 0.0 0.0 0.00 0.00 0.00 100 1009.3
20260505205213 56 0.0 0.0 0.00 0.00 0.00 100 1009.3
20260505202207 56 0.0 0.0 0.00 0.00 0.00 100 1009.3